SCP
0 0 0 0 0 0 0 0 -0 0 0 0 0 0 0 0 0 0 0 0 1 1
0 0 0 -0 0 0 0 0 -0 0 0 0 0 0 0 -0 0 0 0 0 1 1
0 0 0 0 0 -0 0 0 0 0 0 0 0 0 0 0 0 0 -0 -0 0 1
0 0 0 0 0 0 0 -0 -0 -0 -0 0 0 0 0 0 0 0 0 -0 0 0
0 0 0 0 0 -0 -0 -0 -0 -0 -0 0 0 0 0 0 0 0 0 -0 -0 0
0 0 -0 -0 -0 -0 -0 -0 -0 -0 0 0 0 0 0 0 0 0 0 0 -0 0
0 -0 -0 -0 -0 -0 -0 -0 0 0 0 0 0 0 0 0 0 0 0 0 0 0
-0 -0 0 0 0 -0 0 0 0 0 0 0 0 0 0 0 0 0 0 0 0 0
0 0 0 0 -0 -0 0 0 0 0 0 0 0 0 0 0 0 0 0 0 0 0
0 0 0 -0 -0 0 0 0 0 0 0 0 0 0 0 0 0 0 0 0 0 0
-0 0 0 -0 -0 0 0 0 0 0 0 0 0 0 0 0 0 0 0 0 0 0
-0 -0 -0 0 0 0 0 0 0 0 0 0 0 0 0 0 0 0 0 0 0 0
-0 -0 0 0 0 0 0 0 0 0 0 0 0 0 0 0 0 0 0 0 0 0
0 0 0 0 0 0 0 0 0 0 0 0 0 0 0 -0 0 0 0 0 0 0
Wind_Speed_500mb
46 60 60 59 56 70 72 73 67 62 55 46 40 34 41 60 56 60 65 66 60 58
48 50 55 57 64 71 76 74 73 69 63 55 52 47 41 56 69 67 60 66 65 57
47 48 43 46 58 69 82 79 68 63 61 59 52 47 48 49 57 56 81 67 66 62
35 40 50 62 71 81 89 82 73 63 62 62 58 44 44 45 53 82 87 75 65 66
45 53 61 72 81 91 99 88 81 79 77 71 61 49 50 46 55 65 56 64 66 63
60 68 79 97 95 92 86 83 76 71 63 60 59 55 56 52 57 58 59 63 75 71
81 89 93 88 95 89 72 71 66 54 51 52 53 54 61 57 50 49 54 61 67 64
84 82 76 74 74 68 66 57 47 49 48 51 50 55 51 46 49 46 52 59 58 50
70 66 65 63 59 69 57 42 41 45 49 50 44 39 44 44 44 45 45 58 42 42
65 60 62 57 57 58 47 40 39 44 45 45 40 33 34 28 33 39 33 42 35 63
55 61 59 55 57 44 42 36 37 40 35 39 26 22 12 9 25 34 22 17 25 33
74 62 54 50 47 36 37 34 39 28 30 30 18 15 21 19 4 20 23 29 31 50
56 54 51 43 38 33 33 37 25 27 29 29 25 22 14 8 15 47 30 35 37 32
41 35 39 37 28 24 29 27 21 22 16 12 27 26 24 22 27 41 38 36 37 38
Wind_Direction_500mb
293 302 307 312 305 302 303 304 304 307 306 298 290 300 273 236 247 242 246 246 241 243
295 301 304 307 304 301 302 303 304 304 305 302 290 276 279 246 255 256 246 248 238 239
296 300 299 301 298 298 299 304 304 308 303 302 295 275 277 264 241 258 251 245 242 237
283 283 289 293 295 295 298 300 295 295 295 299 299 276 266 270 254 247 249 229 238 238
284 287 287 289 291 292 297 295 292 288 286 290 294 276 264 270 256 237 234 232 230 236
292 294 296 300 293 294 295 295 295 293 288 285 289 282 268 268 268 252 238 230 233 230
295 297 299 291 291 293 295 296 295 291 289 287 289 285 272 263 270 259 246 242 239 233
300 299 296 292 292 295 299 297 293 292 291 294 286 288 264 261 264 256 248 240 229 229
295 295 298 294 293 296 299 297 294 296 301 292 289 270 254 260 256 250 256 246 233 214
293 292 297 292 289 297 295 294 297 301 293 293 282 265 255 255 246 236 250 249 254 244
288 293 290 287 291 284 287 294 293 301 299 293 274 248 225 178 222 221 228 302 190 184
288 288 284 283 279 274 284 282 292 278 291 294 256 175 197 130 146 213 182 158 192 180
287 277 279 274 274 274 286 300 278 276 275 270 171 158 163 140 181 234 211 194 210 205
280 272 272 276 271 285 303 282 285 278 257 234 174 186 183 169 190 205 193 182 174 177
Wind_Speed_850mb
46 60 60 59 56 70 72 73 67 62 55 46 40 34 41 60 56 60 65 66 60 58
48 50 55 57 64 71 76 74 73 69 63 55 52 47 41 56 69 67 60 66 65 57
47 48 43 46 58 69 82 79 68 63 61 59 52 47 48 49 57 56 81 67 66 62
35 40 50 62 71 81 89 82 73 63 62 62 58 44 44 45 53 82 87 75 65 66
45 53 61 72 81 91 99 88 81 79 77 71 61 49 50 46 55 65 56 64 66 63
60 68 79 97 95 92 86 83 76 71 63 60 59 55 56 52 57 58 59 63 75 71
81 89 93 88 95 89 72 71 66 54 51 52 53 54 61 57 50 49 54 61 67 64
84 82 76 74 74 68 66 57 47 49 48 51 50 55 51 46 49 46 52 59 58 50
70 66 65 63 59 69 57 42 41 45 49 50 44 39 44 44 44 45 45 58 42 42
65 60 62 57 57 58 47 40 39 44 45 45 40 33 34 28 33 39 33 42 35 63
55 61 59 55 57 44 42 36 37 40 35 39 26 22 12 9 25 34 22 17 25 33
74 62 54 50 47 36 37 34 39 28 30 30 18 15 21 19 4 20 23 29 31 50
56 54 51 43 38 33 33 37 25 27 29 29 25 22 14 8 15 47 30 35 37 32
41 35 39 37 28 24 29 27 21 22 16 12 27 26 24 22 27 41 38 36 37 38
Wind_Direction_850mb
293 302 307 312 305 302 303 304 304 307 306 298 290 300 273 236 247 242 246 246 241 243
295 301 304 307 304 301 302 303 304 304 305 302 290 276 279 246 255 256 246 248 238 239
296 300 299 301 298 298 299 304 304 308 303 302 295 275 277 264 241 258 251 245 242 237
283 283 289 293 295 295 298 300 295 295 295 299 299 276 266 270 254 247 249 229 238 238
284 287 287 289 291 292 297 295 292 288 286 290 294 276 264 270 256 237 234 232 230 236
292 294 296 300 293 294 295 295 295 293 288 285 289 282 268 268 268 252 238 230 233 230
295 297 299 291 291 293 295 296 295 291 289 287 289 285 272 263 270 259 246 242 239 233
300 299 296 292 292 295 299 297 293 292 291 294 286 288 264 261 264 256 248 240 229 229
295 295 298 294 293 296 299 297 294 296 301 292 289 270 254 260 256 250 256 246 233 214
293 292 297 292 289 297 295 294 297 301 293 293 282 265 255 255 246 236 250 249 254 244
288 293 290 287 291 284 287 294 293 301 299 293 274 248 225 178 222 221 228 302 190 184
288 288 284 283 279 274 284 282 292 278 291 294 256 175 197 130 146 213 182 158 192 180
287 277 279 274 274 274 286 300 278 276 275 270 171 158 163 140 181 234 211 194 210 205
280 272 272 276 271 285 303 282 285 278 257 234 174 186 183 169 190 205 193 182 174 177